Weather in Khut

Russia / Tyva Republic     52°36′40″N   94°33′09″E
temp.,
°C
wind,
m/s
gust,
m/s
humid.,
%
clouds,
%
prec.,
mm/h
press.,
hPa
HPBL,
m
28 february, sun
sun2801:00−25wsw1296100 0.1 104121
04:00−25wsw1295100 0.0 104221
07:00−26wsw2294100 0.0 104427
10:00−21sw2391100 0.0 1043227
13:00−17sw3576100 0.0 1040941
16:00−16sw357751 0.0 1038774
19:00−23sw229429 0.0 103929
22:00−25sw2389100 0.0 104038
1 march, mon
mon101:00−24sw3389100 0.0 103849
04:00−23sw3392100 0.0 103784
07:00−23sw339199 0.0 103574
10:00−19sw3488100 0.0 1032218
13:00−15sw3490100 0.2 1027383
16:00−14sw3584100 0.0 1024405
19:00−18sw3492100 0.0 1024121
22:00−18sw3592100 0.0 1023130
2 march, tue
tue201:00−17sw4595100 0.3 1021165
04:00−17sw4595100 0.1 1019150
07:00−17sw4694100 0.3 1019165
10:00−14sw4793100 0.4 1018263
13:00−9sw479098 0.7 1016493
16:00−8sw4108788 0.4 1015880
19:00−11sw4119292 0.5 1017556
22:00−11sw3692100 0.2 1018221
3 march, wed
wed301:00−14sw349599 0.3 101883
04:00−14sw349496 0.0 101777
07:00−13sw239598 0.2 101676
10:00−10sw3492100 0.1 1014248
13:00−7sw3486100 0.2 1012638
16:00−6sw2387100 0.1 1011573
19:00−10wsw239599 0.4 101380
22:00−11wsw2294100 0.1 101526
4 march, thu
thu401:00−12sw3393100 0.3 101891
04:00−17wsw2289100 0.1 102126
07:00−19w2290100 0.1 102520
10:00−13wnw127933 0.0 1026418
13:00−10wsw127350 0.0 10261117
16:00−10sw1179100 0.1 1026749
19:00−16wsw1195100 0.2 102920
22:00−20sw119544 0.1 103120